Location: Izdebno
(52.6670°N, 16.2170°E)
Time: 12:11:25
(UTC+02:00)

Vanguard 2 - Pass Details

Date: 07 February 2023
Orbit: 553 x 2927 km, 32.9° (Epoch: 26 March)

Event Time Altitude Azimuth Distance (km) Brightness Sun altitude
Rises 03:02:43 0° 269° (W) 6,552 - -39.5°
Reaches altitude 10° 03:09:23 10° 252° (WSW) 5,716 - -38.7°
Maximum altitude 03:18:34 17° 220° (SW) 5,154 - -37.4°
Drops below altitude 10° 03:27:30 10° 188° (S) 5,480 - -36.2°
Exits shadow 03:28:18 - 185° (S) 5,550 11.6 -36.1°
Sets 03:33:44 0° 170° (S) 6,168 12.0 -35.3°
